STARLINK-32318, 61864

Orbit data source: Space-Track

STARLINK-32318, 61864 is a payload satellite owned by SpaceX/Seattle (US) in LEO that was launched on Thu, 07 Nov 2024 UTC via an FALCON 9 launch vehicle from the Air Force Eastern Test Range (AFETR). Payload-class satellites include a variety of spacecraft equipped with specific instruments for various scientific and technological missions. These include communications satellites like Starlink; space stations such as the ISS; scientific satellites like the Hubble; Earth observation satellites from companies like Planet Labs, Umbra, and HawkEye 360; GPS; miniature CubeSats for education and research; and military/defense satellites.

Loading next visibility...
Identifier
61864, 2024-202V
Orbit
LEO
Country
Flag of USUS
Related business
Manufacturer
SpaceX/Seattle
Mission
Operational Commercial Communications
Bus & Motor
STARLINK V2M, Unknown motor
Mass
730 kg wet, ~700 kg dry
Launch date (UTC)
2024-11-07 (1 year ago)
Launch vehicle
FALCON 9
Launch site
Air Force Eastern Test Range (AFETR)
Object type
Payload
Rocket body
Debris
Shape & HBR
Box + 2 Pan, 17.7 m
Radar Cross Section
33.884 m², Large (>1 m²)

Expand to show TLE details & history
Last TLE update: 9 hours ago

TLE from 9 hours ago
0 STARLINK-32318
1 61864U 24202V   25343.12620845 -.00002644  00000-0 -86674-4 0  9993
2 61864  43.0054  29.7445 0001272 273.6040  86.4666 15.27547162 61483
Epoch: 2025-12-09T03:01Z
TLE epoch observation values (Epoch: 2025-12-09T03:01:44.410Z)
Latitude
-0.00002°
Longitude
-93.80593°
Altitude
482.87 km
Speed
7.626 km/s
True Right ascension
01h 58m 58s
True Declination
0° 00' 00"
Sunlit
Object was in full shadow at epoch
Visualization orbit readout
Latitude
Unknown
Longitude
Unknown
Altitude
Unknown
Speed
Unknown
Apparent Right ascension
Unknown
Apparent Declination
Unknown
Sunlit
N/A
Visualization observer readout
Local Sidereal Time
09:59:52
Azimuth
Unknown
Elevation
Unknown
Doppler factor
Unknown
Orbital elements
Apogee altitude
485.965 km
Perigee altitude
484.219 km
Semi-major axis
6,863.229 km
Eccentricity
0.00013
Inclination
43.0054°
RAAN
29.7445°
Arg. of periapsis
273.604°
True anomaly
86.48115°
Mean anomaly
86.4666°
Eccentric anomaly
86.47387°
Mean motion
3.81725 °/min
Orbital period
94.31 mins
BSTAR
-0.000086674
Loading maneuver chart data...
Computing Atmospheric mass density...
Loading historical data...
Loading historical data...
Loading historical data...
Loading historical data...
Loading historical data...
Loading historical data...
Loading historical data...

Documentation

Showing up to 5 results
|